Location: Pradons
(44.4746°N, 4.3578°E)
Time: 10:04:34
(UTC+00:00)

Meteor 1-11 - Pass Details

Date: 09 April 2020
Orbit: 841 x 886 km, 81.2° (Epoch: 04 June)

Event Time Altitude Azimuth Distance (km) Brightness Sun altitude
Rises 19:35:20 0° 348° (NNW) 3,480 8.0 -13.5°
Reaches altitude 10° 19:37:48 10° 347° (NNW) 2,532 7.2 -13.9°
Maximum altitude 19:43:32 78° 262° (W) 889 4.4 -14.8°
Drops below altitude 10° 19:49:11 10° 177° (S) 2,483 6.3 -15.7°
Enters shadow 19:50:50 - 176° (S) 3,123 6.8 -15.9°
